TimeEST,TemperatureF,Dew PointF,Humidity,Sea Level PressureIn,VisibilityMPH,Wind Direction,Wind SpeedMPH,Gust SpeedMPH,PrecipitationIn,Events,Conditions,WindDirDegrees,DateUTC
12:53 AM,23.0,18.0,81,30.38,10.0,SSW,3.5,-,N/A,,Clear,200,2012-12-31 05:53:00
1:53 AM,23.0,18.0,81,30.36,10.0,SSW,3.5,-,N/A,,Clear,200,2012-12-31 06:53:00
2:53 AM,24.1,19.0,81,30.35,10.0,SSW,5.8,-,N/A,,Clear,210,2012-12-31 07:53:00
3:53 AM,24.1,19.0,81,30.32,10.0,SSW,6.9,-,N/A,,Clear,200,2012-12-31 08:53:00
4:53 AM,25.0,19.0,78,30.30,10.0,SSW,5.8,-,N/A,,Clear,210,2012-12-31 09:53:00
5:53 AM,25.0,19.0,78,30.30,10.0,SSW,5.8,-,N/A,,Clear,210,2012-12-31 10:53:00
6:53 AM,26.1,19.0,75,30.29,10.0,SSW,8.1,-,N/A,,Clear,210,2012-12-31 11:53:00
7:53 AM,27.0,19.0,72,30.29,10.0,SSW,6.9,-,N/A,,Clear,200,2012-12-31 12:53:00
8:53 AM,28.9,19.9,69,30.29,10.0,SW,6.9,-,N/A,,Clear,220,2012-12-31 13:53:00
9:53 AM,30.0,21.0,69,30.28,10.0,SSW,8.1,-,N/A,,Clear,200,2012-12-31 14:53:00
10:53 AM,32.0,21.0,64,30.25,10.0,South,8.1,-,0.01,,Clear,190,2012-12-31 15:53:00
11:53 AM,33.1,21.0,61,30.22,10.0,SSW,12.7,-,0.01,,Clear,200,2012-12-31 16:53:00
12:53 PM,34.0,21.0,59,30.18,10.0,SSW,10.4,17.3,N/A,,Overcast,210,2012-12-31 17:53:00
1:53 PM,35.1,21.9,59,30.17,7.0,SSW,12.7,26.5,N/A,,Overcast,210,2012-12-31 18:53:00
2:05 PM,33.8,26.6,75,30.12,2.5,SW,12.7,23.0,0.00,Snow,Light Snow,220,2012-12-31 19:05:00
2:14 PM,33.8,26.6,75,30.13,5.0,SW,5.8,23.0,0.00,,Haze,220,2012-12-31 19:14:00
2:39 PM,33.8,26.6,75,30.12,2.5,SSW,9.2,-,0.00,Snow,Light Snow,200,2012-12-31 19:39:00
2:53 PM,32.0,28.0,85,30.16,1.0,SW,12.7,23.0,0.00,Snow,Light Snow,220,2012-12-31 19:53:00
3:00 PM,30.2,28.4,93,30.12,0.8,SSW,10.4,-,0.00,Snow,Light Snow,210,2012-12-31 20:00:00
3:05 PM,30.2,28.4,93,30.12,1.0,Variable,6.9,-,0.00,Snow,Light Snow,0,2012-12-31 20:05:00
3:15 PM,30.2,28.4,93,30.12,3.0,South,8.1,-,0.00,Snow,Light Snow,190,2012-12-31 20:15:00
3:25 PM,30.2,28.4,93,30.11,2.0,South,8.1,-,0.00,Snow,Light Snow,190,2012-12-31 20:25:00
3:29 PM,30.2,28.4,93,30.11,1.2,South,8.1,-,0.00,Snow,Light Snow,180,2012-12-31 20:29:00
3:44 PM,30.2,28.4,93,30.11,2.0,South,8.1,-,0.00,Snow,Light Snow,180,2012-12-31 20:44:00
3:53 PM,30.9,28.9,92,30.15,1.0,South,6.9,-,0.00,Snow,Light Snow,180,2012-12-31 20:53:00
4:13 PM,30.2,28.4,93,30.10,2.5,South,6.9,-,0.00,Snow,Light Snow,190,2012-12-31 21:13:00
4:22 PM,30.2,28.4,93,30.09,4.0,SSW,5.8,-,0.00,,Overcast,200,2012-12-31 21:22:00
4:36 PM,30.2,28.4,93,30.08,2.0,South,5.8,-,0.00,Snow,Light Snow,180,2012-12-31 21:36:00
4:53 PM,32.0,28.9,88,30.11,3.0,South,5.8,-,0.00,Snow,Light Snow,190,2012-12-31 21:53:00
5:53 PM,32.0,28.9,88,30.14,7.0,SSW,8.1,-,0.00,Snow,Light Snow,200,2012-12-31 22:53:00
6:53 PM,32.0,28.0,85,30.12,9.0,SSW,5.8,-,0.00,,Overcast,200,2012-12-31 23:53:00
7:53 PM,33.1,25.0,72,30.12,10.0,SW,6.9,-,N/A,,Overcast,230,2013-01-01 00:53:00
8:09 PM,33.8,24.8,70,30.08,10.0,SW,9.2,-,0.00,Snow,Light Snow,220,2013-01-01 01:09:00
8:23 PM,33.8,24.8,70,30.07,9.0,SSW,16.1,21.9,0.00,Snow,Light Snow,210,2013-01-01 01:23:00
8:30 PM,33.8,24.8,70,30.08,9.0,SSW,9.2,21.9,0.00,Snow,Light Snow,210,2013-01-01 01:30:00
8:53 PM,33.1,25.0,72,30.11,9.0,SW,8.1,18.4,0.00,Snow,Light Snow,220,2013-01-01 01:53:00
9:15 PM,33.8,24.8,70,30.07,9.0,SW,12.7,20.7,0.00,Snow,Light Snow,220,2013-01-01 02:15:00
9:53 PM,34.0,25.0,70,30.09,9.0,SW,5.8,-,0.00,Snow,Light Snow,220,2013-01-01 02:53:00
10:14 PM,33.8,24.8,70,30.05,9.0,SSW,5.8,-,0.00,Snow,Light Snow,210,2013-01-01 03:14:00
10:27 PM,33.8,24.8,70,30.05,9.0,SSW,6.9,-,0.00,Snow,Light Snow,210,2013-01-01 03:27:00
10:53 PM,34.0,25.0,70,30.08,9.0,SW,6.9,-,0.00,,Overcast,220,2013-01-01 03:53:00
11:35 PM,35.6,26.6,70,30.04,10.0,SW,4.6,-,0.01,,Overcast,220,2013-01-01 04:35:00
11:53 PM,35.1,25.0,67,30.07,10.0,SW,8.1,-,0.01,,Overcast,230,2013-01-01 04:53:00